Location: ?ern� Novina
(50.6762°N, 14.8696°E)
Time: 10:38:38
(UTC+00:00)

ERS-1 Rocket - Pass Details

Date: 03 March 2021
Orbit: 752 x 758 km, 98.4° (Epoch: 16 April)

Event Time Altitude Azimuth Distance (km) Brightness Sun altitude
Exits shadow 20:04:10 28° 7° (N) 1,399 4.5 -31.1°
Drops below altitude 10° 20:06:40 10° 353° (N) 2,300 5.9 -31.4°
Sets 20:09:01 0° 349° (N) 3,229 6.8 -31.8°
